STARLINK-5717, 55618

Orbit data source: Space-Track

STARLINK-5717, 55618 is a payload satellite owned by SpaceX/Seattle (US) in LEO that was launched on Sun, 12 Feb 2023 UTC via an FALCON 9 launch vehicle from the Air Force Eastern Test Range (AFETR). Payload-class satellites include a variety of spacecraft equipped with specific instruments for various scientific and technological missions. These include communications satellites like Starlink; space stations such as the ISS; scientific satellites like the Hubble; Earth observation satellites from companies like Planet Labs, Umbra, and HawkEye 360; GPS; miniature CubeSats for education and research; and military/defense satellites.

Loading next visibility...
Identifier
55618, 2023-020BB
Orbit
LEO
Country
Flag of USUS
Related business
Manufacturer
SpaceX/Seattle
Mission
Operational Commercial Communications
Bus & Motor
STARLINK, Unknown motor
Mass
305 kg wet, ~290 kg dry
Launch date (UTC)
2023-02-12 (3 years ago)
Launch vehicle
FALCON 9
Launch site
Air Force Eastern Test Range (AFETR)
Object type
Payload
Rocket body
Debris
Shape & HBR
Box + 1 Pan, 10.1 m
Radar Cross Section
13.562 m², Large (>1 m²)

Expand to show TLE details & history
Last TLE update: 13 hours ago

TLE from 13 hours ago
0 STARLINK-5717
1 55618U 23020BB  25340.70338812 -.00000574  00000-0 -27386-4 0  9996
2 55618  43.0028 136.7632 0001437 268.6027  91.4650 15.02533379155080
Epoch: 2025-12-06T16:52Z
TLE epoch observation values (Epoch: 2025-12-06T16:52:52.733Z)
Latitude
-0.00007°
Longitude
167.81608°
Altitude
558.891 km
Speed
7.584 km/s
True Right ascension
09h 07m 03s
True Declination
0° 00' 00"
Sunlit
Object was in full shadow at epoch
Visualization orbit readout
Latitude
Unknown
Longitude
Unknown
Altitude
Unknown
Speed
Unknown
Apparent Right ascension
Unknown
Apparent Declination
Unknown
Sunlit
N/A
Visualization observer readout
Local Sidereal Time
04:19:03
Azimuth
Unknown
Elevation
Unknown
Doppler factor
Unknown
Orbital elements
Apogee altitude
562.008 km
Perigee altitude
560.014 km
Semi-major axis
6,939.148 km
Eccentricity
0.00014
Inclination
43.0028°
RAAN
136.7632°
Arg. of periapsis
268.6027°
True anomaly
91.48146°
Mean anomaly
91.465°
Eccentric anomaly
91.47323°
Mean motion
3.75478 °/min
Orbital period
95.88 mins
BSTAR
-0.000027386
Loading maneuver chart data...
Computing Atmospheric mass density...
Loading historical data...
Loading historical data...
Loading historical data...
Loading historical data...
Loading historical data...
Loading historical data...
Loading historical data...

Documentation

Showing up to 5 results
|